OPS 6063

导读

OPS 6063是美国于1973年3月6日08:00发射的军用侦察卫星,隶属美国国家侦察局保密项目体系。作为冷战时期美军天基侦察体系的组成部分,OPS编号是美国保密军事卫星任务的通用命名前缀。该卫星依托当时成熟的运载火箭技术入轨,承担对地光学成像或电子侦察任务,服务于美国冷战战略情报收集需求,在冷战太空对抗背景下,为美国获取战略情报提供了天基支撑,是70年代美国军事航天发展的重要见证。

基本信息
目录编号:
6380
目录名称:
OPS 6063
国际标识:
1973-013A
轨道中心:
EARTH
卫星名称:
OPS 6063
卫星全名:
--
卫星状态:
在轨 (已飞行19465 天)
发射日期:
1973-03-06 UTC
国别 :
美国 (US)
星等 :
--
轨道信息
数据来源 国际轨道数据 AOE轨道数据
星历时间 2026-06-20T17:46:21+0800
16小时前
查看轨道信息
2026-06-21T07:00:00+0800
3小时前
查看轨道信息
半长轴 42164.784km 42164.7km
偏心率 0.0018466 0.0018369
轨道倾角 0.351° 0.350°
近地点辐角 283.104° 282.895°
升交点赤经 234.605° 234.373°
平近点角 334.128° 173.523°
近地点 35708.785km 35709.11km
远地点 35864.509km 35864.016km
周期 1436.100分钟 1436.095分钟
每日圈数 1.002716 1.002719
详细信息
使用方式:
暂无
2D轨道图
3D轨道图
轨道高度分析图
轨道倾角分析图
轨道综合分析图
查看轨道综合分析图